This is the latest recevied weather packets stored in our database for station/object DC8RAI-12. If no packets are shown the sender has not sent any weather packets the latest 10 day(s).
| Time | Temp. | Humidity | Pressure | Rain* | Wind** | Luminosity | Snow |
|---|---|---|---|---|---|---|---|
| 1777154384 | 10.56° C | 55% | 1018.4 hPa | - | - | - | - |
| 1777153483 | 10° C | 57% | 1018.4 hPa | - | - | - | - |
| 1777152583 | 10.56° C | 55% | 1018.3 hPa | - | - | - | - |
| 1777151683 | 10.56° C | 54% | 1018.2 hPa | - | - | - | - |
| 1777150783 | 11.11° C | 53% | 1018 hPa | - | - | - | - |
| 1777149883 | 11.11° C | 52% | 1017.9 hPa | - | - | - | - |
| 1777148983 | 11.67° C | 53% | 1017.8 hPa | - | - | - | - |
| 1777148083 | 12.22° C | 51% | 1017.5 hPa | - | - | - | - |
| 1777147182 | 12.22° C | 50% | 1017.3 hPa | - | - | - | - |
| 1777146282 | 12.78° C | 51% | 1017.2 hPa | - | - | - | - |
| 1777145382 | 13.33° C | 48% | 1016.9 hPa | - | - | - | - |
| 1777144481 | 13.33° C | 49% | 1016.8 hPa | - | - | - | - |
| 1777143581 | 15° C | 48% | 1016.6 hPa | - | - | - | - |
| 1777142680 | 15.56° C | 48% | 1016.3 hPa | - | - | - | - |
| 1777141780 | 15.56° C | 46% | 1016 hPa | - | - | - | - |
| 1777140880 | 16.67° C | 45% | 1015.8 hPa | - | - | - | - |
| 1777139979 | 17.22° C | 43% | 1015.6 hPa | - | - | - | - |
| 1777139079 | 17.78° C | 40% | 1015.4 hPa | - | - | - | - |
| 1777138179 | 19.44° C | 36% | 1015.2 hPa | - | - | - | - |
| 1777137279 | 20.56° C | 32% | 1015.2 hPa | - | - | - | - |
| 1777136379 | 21.11° C | 28% | 1015.2 hPa | - | - | - | - |
| 1777135479 | 21.11° C | 27% | 1015 hPa | - | - | - | - |
| 1777134579 | 21.67° C | 26% | 1015 hPa | - | - | - | - |
| 1777133679 | 22.78° C | 25% | 1014.9 hPa | - | - | - | - |
| 1777132779 | 22.22° C | 24% | 1015 hPa | - | - | - | - |
* Rain since midnight (hover to see other rain measurements)
** Current wind speed in m/s (hover to see current wind gust speed)